Regional Weather Roundup
Issued by NWS

Home | Current Version | Previous Version | Graphics & Text | Print | Product List | Glossary On
Versions: 1 2 3 4 5 6 7 8 9 10 11 12 13 14 15 16 17 18 19 20 21 22 23 24 25 26 27 28 29 30 31 32 33 34 35 36 37 38 39 40 41 42 43 44 45 46 47 48 49 50
345
ASUS44 KLIX 221505
RWRLA
LOUISIANA WEATHER ROUNDUP
NATIONAL WEATHER SERVICE NEW ORLEANS LA
1000 AM CDT MON SEP 22 2014

NOTE: "FAIR" INDICATES FEW OR NO CLOUDS BELOW 12,000 FEET WITH NO
      SIGNIFICANT WEATHER AND/OR OBSTRUCTIONS TO VISIBILITY.
      SKY/WX - SKY CONDITION AND SIGNIFICANT WEATHER.
      TMP - AIR TEMPERATURE.    DP   - DEWPOINT TEMPERATURE.
      RH  - RELATIVE HUMIDITY.  PRES - PRESSURE.
      HX  - HEAT INDEX.         WCI  - WIND CHILL INDEX.

*  THESE STATIONS ARE NOT NWS OR FAA STATIONS AND ARE NOT UNDER
   NWS QUALITY CONTROL.

LAZ040-048-061>063-065-066-069-221600-
SOUTHEAST LOUISIANA

CITY           SKY/WX    TMP DP  RH WIND       PRES   REMARKS
N.O. AUDUBON     N/A     87  73  61 MISG        N/A
N.O. INTL ARPT MOSUNNY   84  69  60 N9        30.04S
N.O. LAKEFRONT SUNNY     83  71  67 N8        30.05S
N.O. DOWNTOWN* FAIR      82  68  61 N3        30.05S
SLIDELL        SUNNY     83  69  62 N9        30.05R
BATON ROUGE    SUNNY     81  71  71 N6        30.07R
BOOTHVILLE     SUNNY     83  76  79 N8        30.03S
BELLE CHASSE   MOSUNNY   85  69  58 N7        30.04S
BOGALUSA*        N/A     79  69  71 N5        30.07F
GALLIANO*      NOT AVBL
NEW ROADS*     FAIR      78  72  81 N6        30.08R
GONZALES*      FAIR      82  72  71 CALM      30.05S
HAMMOND*       SUNNY     81  70  69 N6        30.07S
HOUMA*         SUNNY     82  54  36 N12       30.05R
PORT FOURCHON* SUNNY     84  70  61 NE12      30.06S

$$

LAZ041-044-053-054-221600-
SOUTHWEST LOUISIANA

CITY           SKY/WX    TMP DP  RH WIND       PRES   REMARKS
LAKE CHARLES   SUNNY     81  72  74 NE7       30.07S
LAFAYETTE      SUNNY     81  72  74 N9        30.07R
PATTERSON      MOSUNNY   82  72  69 N5        30.08S
SALT POINT       N/A     84  72  67 VRB3      30.04S
NEW IBERIA     SUNNY     84  72  67 N5        30.06S
CHENAULT AIRPK SUNNY     79  72  78 NE10      30.08S

$$

LAZ027-028-221600-
CENTRAL LOUISIANA

CITY           SKY/WX    TMP DP  RH WIND       PRES   REMARKS
FORT POLK      SUNNY     76  60  57 NE12G18   30.11R
ALEXANDRIA INT CLOUDY    75  61  61 NE9       30.10R
ALEXANDRIA     PTSUNNY   77  63  61 VRB7      30.11R

$$

LAZ001-002-221600-
NORTHWEST LOUISIANA

CITY           SKY/WX    TMP DP  RH WIND       PRES   REMARKS
SHREVEPORT     CLOUDY    74  54  49 NE8       30.18R
BARKSDALE AFB  PTSUNNY   74  54  48 VRB6      30.18R
DTN SHREVEPORT CLOUDY    73  54  51 NE9       30.19R

$$

LAZ014-016-221600-
NORTHEAST LOUISIANA

CITY           SKY/WX    TMP DP  RH WIND       PRES   REMARKS
MONROE         SUNNY     76  54  46 NE16G24   30.18R
TALLULAH       MOSUNNY   76  58  53 NE13      30.15R

$$




USA.gov is the U.S. government's official web portal to all federal, state and local government web resources and services.